Location: �quirre
(50.4736°N, 2.2351°E)
Time: 10:44:45
(UTC+00:00)

Cosmos 1536 Rocket - Pass Details

Date: 07 August 2020
Orbit: 605 x 633 km, 82.5° (Epoch: 21 September)

Event Time Altitude Azimuth Distance (km) Brightness Sun altitude
Rises 01:41:25 0° 344° (NNW) 2,885 7.7 -19.4°
Reaches altitude 10° 01:43:44 10° 337° (NNW) 1,972 6.7 -19.2°
Maximum altitude 01:47:48 40° 268° (W) 903 4.1 -18.9°
Enters shadow 01:48:28 37° 244° (WSW) 947 4.1 -18.8°
